Back to catalog

STARLINK-37964

AliveCommunicationsVLEO
NORAD 69958·PAYLOAD·🇺🇸 United States

Launched Jul 9, 2026 from Cape Canaveral Space Force Station

Loading…

Next Passes (next 24 hours)

TLE

FreshSource: CelesTrak SupGP

Epoch: Sep 14, 2026, 21:36 UTC

1 69958C 26157R   26257.90048611 -.00005521  00000+0 -16319-3 0  2573
2 69958  53.1588   0.2332 0001045  81.4547 100.7549 15.34380587    19

Track STARLINK-37964 in real time with AllMySat

Download on the App Store